Location: Knowlton
(51.2333°N, 1.2667°E)
Time: 04:46:22
(UTC+00:00)

ALOS 2 - Pass Details

Date: 18 April 2021
Orbit: 630 x 632 km, 97.9° (Epoch: 06 May)

Event Time Altitude Azimuth Distance (km) Brightness Sun altitude
Exits shadow 22:49:54 51° 47° (NE) 804 3.2 -26.1°
Drops below altitude 10° 22:53:45 10° 354° (N) 2,025 6.2 -26.2°
Sets 22:56:00 0° 350° (N) 2,937 7.3 -26.3°
